Погода в Новотроицке

Россия / Омская область     55˚46′41″N   73˚03′30″E
темп.,
°C
ветер,
м/с
пор.,
м/с
влажн.,
%
обл.,
%
осадки,
мм/ч
давл.,
гПа
погр.,
м
17 января, вс
вс1700:00−10˚ю51286100 0.0 1008324
03:00−10˚ююз51190100 0.0 1005346
06:00−7˚зюз61392100 0.1 1006628
09:00−10˚зюз6139299 0.0 1007333
12:00−10˚зюз6129288 0.1 1009353
15:00−10˚юз6129021 0.0 1009349
18:00−10˚ююз7168740 0.0 1008436
21:00−9˚юз8168469 0.0 1006740
18 января, пн
пн1800:00−9˚зюз8158985 0.1 1005894
03:00−10˚зюз71490100 0.1 1006654
06:00−13˚з71490100 0.2 1008510
09:00−17˚з6139389 0.0 1012368
12:00−17˚з6119392 0.0 1015392
15:00−18˚з489377 0.0 1017290
18:00−21˚юз349639 0.0 101937
21:00−23˚юз33970 0.0 101927
19 января, вт
вт1900:00−23˚ююз449644 0.0 101870
03:00−24˚ююз349625 0.0 101868
06:00−24˚юз349512 0.0 101738
09:00−23˚юз359467 0.0 101684
12:00−21˚зюз359368 0.0 1017172
15:00−20˚зсз249488 0.0 1017229
18:00−23˚ссз239576 0.0 101731
21:00−22˚ссв369598 0.0 1018204
20 января, ср
ср2000:00−22˚св479599 0.0 1018245
03:00−23˚св5993100 0.0 1018263
06:00−24˚св5988100 0.0 1018288
09:00−24˚всв6989100 0.0 1018313
12:00−24˚св5898100 1.2 1017304
15:00−24˚св4798100 1.5 1017304
18:00−25˚св3598100 1.9 1018217
21:00−26˚ссв2498100 0.2 1019105
21 января, чт
чт2100:00−27˚с339895 0.3 102041
03:00−30˚с339727 0.0 102225
06:00−32˚с239718 0.0 102219
09:00−33˚ссв229783 0.0 102219
12:00−30˚ссв239674 0.0 102291
15:00−28˚св1292100 0.0 1020177
18:00−30˚ссв2295100 0.0 101922
21:00−31˚ссв1196100 0.0 101919